[[{"header":{"parameterUnit":"m.s-1","parameterCategory":1,"la1":30.2991,"la2":30.254,"lo1":-89.0895,"lo2":-89.0444,"dy":0.0017,"dx":0.0017,"nx":28,"ny":28,"refTime":"2024-02-15T09:00:00:Z","depth":0,"parameterNumber":2,"parameterNumberName":"U-component_of_WINDS"},"data":[0,0,0,0,0,0,0,0,0,0,0,0,0,0,0,0,0,0,0,0,0,0,0,0,0,0,0,0,0,0,0,0,0,0,0,0,0,0,0,0,0,0,0,0,0,0,0,0,0,0,0,0,0,0,0,0,0,0,-1.0046,-1.0046,0,-1.0015,-1.0014,-1.0014,-0.9952,-0.9951,-0.995,-0.9948,-0.9917,-0.9918,-0.9918,0,0,0,0,0,0,0,0,0,0,0,0,0,-1.0055,-1.0056,-1.0046,-1.0046,-1.0046,-1.0015,-1.0014,-1.0014,-0.9952,-0.9951,-0.9949,-0.9948,-0.9917,-0.9918,-0.9918,0,0,0,0,0,0,0,0,0,0,0,0,0,-1.004,-1.0056,-1.0046,-1.0011,-1.0008,-1.0015,-1.0014,-1.0014,-0.9953,-0.9951,-0.9949,-0.9947,-0.9917,-0.9918,-0.9918,-0.9958,0,0,-0.992,-0.992,0,0,0,0,0,0,0,0,-1.0041,-1.004,-1.0017,-1.0014,-1.001,-0.9985,-1.0006,-0.9995,-0.9953,-0.9974,-0.9948,-0.9946,-0.9942,-0.994,-0.9938,-0.9956,-0.9955,-0.992,-0.992,-0.992,-0.992,0,0,0,0,0,0,0,-1.0042,-1.0041,-1.0034,-1.0016,-1.0012,-0.9997,-0.9993,-1.0004,-0.9968,-0.9972,-0.9967,-0.9964,-0.9939,-0.9938,-0.9937,-0.9954,-0.992,-0.992,-0.992,-0.9921,-1.0003,-1.0005,0,0,0,0,0,0,-1.0048,-1.0042,-1.0035,-1.0033,-1.0021,-0.9999,-0.9994,-0.9995,-0.9968,-0.9962,-0.9966,-0.9961,-0.9938,-0.9936,-0.9936,-0.998,-0.992,-0.9921,-0.9921,-1.0001,-1.0004,-1.0006,0,0,0,0,0,0,-1.0049,-1.0048,-1.0036,-1.0036,-1.0034,-1.0,-1.0002,-0.9995,-0.9994,-0.9963,-0.9957,-0.997,-0.9936,-0.9935,-0.9953,-0.9978,-0.9921,-0.9921,-0.9999,-1.0002,-1.0005,-1.0069,0,0,0,0,0,0,-1.0049,-1.0049,-1.0063,-1.0037,-1.0034,-1.0053,-1.0004,-0.9996,-0.9994,-0.9988,-0.9966,-0.9961,-0.9935,-0.9952,-0.9953,-0.9978,-0.9922,-0.9997,-1.0001,-1.0004,-1.0065,-1.0074,-1.0082,0,0,0,0,0,-1.005,-1.0083,-1.0064,-1.0064,-1.0051,-1.0055,-1.0053,-1.0022,-0.9997,-1.0011,-0.9992,-0.9961,-0.9975,-0.9954,-0.9955,-0.998,-0.9995,-0.9999,-1.0004,-1.0061,-1.0072,-1.0082,0,0,0,0,0,0,-1.0113,-1.0079,-1.0058,-1.0083,-1.0072,-1.0044,-1.0061,-1.0035,-1.0032,-1.0026,-0.9989,-0.9984,-1.0007,-0.9995,-0.9973,-1.0017,-0.998,-0.9985,-1.0024,-1.0034,-1.0043,-1.0045,-0.9922,0,0,0,0,0,-1.013,-1.0136,-1.0105,-1.0131,-1.0126,-1.0095,-1.0096,-1.0073,-1.006,-1.0056,-1.0037,-1.0027,-1.0029,-1.0031,-1.0031,-1.0063,-1.0057,-1.008,-1.0089,-1.0096,-1.0101,-1.0117,-1.0127,-1.002,-1.002,-1.002,0,0,-1.0165,-1.0147,-1.0153,-1.0143,-1.0132,-1.0139,-1.0092,-1.0101,-1.0106,-1.0057,-1.0072,-1.0059,-1.0045,-1.007,-1.008,-1.0061,-1.0129,-1.0102,-1.0108,-1.0108,-1.0122,-1.0133,-1.0142,-1.0023,-1.0022,-1.0022,0,0,-1.0232,-1.0219,-1.0239,-1.0229,-1.0212,-1.0191,-1.0196,-1.0172,-1.0161,-1.0176,-1.0139,-1.0145,-1.0149,-1.014,-1.0137,-1.0201,-1.0173,-1.0202,-1.0247,-1.0263,-1.0272,-1.0279,-1.0302,-1.0311,-1.0207,-1.0207,-1.0207,0,-1.0278,-1.0287,-1.0252,-1.0264,-1.0261,-1.0217,-1.0237,-1.0229,-1.0214,-1.0213,-1.0191,-1.0195,-1.0183,-1.0205,-1.0221,-1.0219,-1.0224,-1.0205,-1.0273,-1.028,-1.0287,-1.0308,-1.0317,-1.0211,-1.021,-1.021,-1.0209,0,-1.0344,-1.035,-1.0368,-1.0354,-1.0353,-1.0369,-1.0338,-1.0341,-1.0318,-1.03,-1.0316,-1.0299,-1.0295,-1.0299,-1.0277,-1.0318,-1.0307,-1.028,-1.0242,-1.0301,-1.0321,-1.0329,-1.0216,-1.0214,-1.0213,-1.0212,0,0,-1.045,-1.0417,-1.0424,-1.0417,-1.0396,-1.0401,-1.0415,-1.041,-1.0414,-1.0405,-1.0416,-1.0421,-1.0396,-1.0392,-1.0368,-1.0383,-1.0435,-1.0354,-1.0353,-1.037,-1.048,-1.05,-1.051,-1.0417,-1.0418,-1.0419,-1.0481,0,-1.0512,-1.0534,-1.0504,-1.0532,-1.0538,-1.0496,-1.0509,-1.0497,-1.0481,-1.0484,-1.0465,-1.0469,-1.0436,-1.0433,-1.0445,-1.0426,-1.0457,-1.0421,-1.0427,-1.0428,-1.0432,-1.0521,-1.0542,-1.0601,-1.0489,-1.049,-1.0491,0,-1.0588,-1.0583,-1.0612,-1.0589,-1.059,-1.0602,-1.0595,-1.0599,-1.0585,-1.0572,-1.0568,-1.054,-1.0553,-1.0516,-1.0533,-1.051,-1.0511,-1.0502,-1.0503,-1.0503,-1.0463,-1.0522,-1.0619,-1.0628,-1.0503,-1.0502,-1.0501,0,-1.0663,-1.0663,-1.068,-1.0676,-1.0649,-1.0659,-1.0648,-1.0633,-1.0632,-1.0627,-1.0626,-1.0623,-1.0621,-1.0619,-1.0591,-1.0567,-1.0612,-1.0573,-1.0602,-1.0603,-1.0613,-1.0613,-1.0712,-1.0614,-1.0613,-1.0613,-1.0613,0,-1.0736,-1.0756,-1.0713,-1.0724,-1.0745,-1.071,-1.0732,-1.0717,-1.0704,-1.0712,-1.0675,-1.0683,-1.0646,-1.065,-1.0629,-1.0646,-1.0646,-1.0636,-1.063,-1.0639,-1.064,-1.0639,-1.0634,-1.0616,-1.0615,-1.0615,-1.0614,0,-1.0823,-1.0795,-1.0811,-1.0785,-1.0779,-1.0796,-1.0773,-1.0783,-1.0763,-1.0774,-1.0774,-1.0744,-1.0747,-1.0719,-1.0717,-1.0703,-1.073,-1.0717,-1.0735,-1.0731,-1.0761,-1.0758,-1.0862,-1.0874,-1.0769,-1.077,-1.0771,0,-1.0871,-1.0885,-1.086,-1.0863,-1.0854,-1.0858,-1.0857,-1.0824,-1.0824,-1.081,-1.0821,-1.0821,-1.0819,-1.0826,-1.0805,-1.0803,-1.0789,-1.0826,-1.0789,-1.0798,-1.079,-1.079,-1.0791,-1.0834,-1.0835,-1.0836,-1.0837,0,-1.096,-1.0946,-1.0945,-1.0941,-1.094,-1.0935,-1.0928,-1.0932,-1.0895,-1.0898,-1.09,-1.0899,-1.0897,-1.0897,-1.0891,-1.0881,-1.0853,-1.0849,-1.0855,-1.0865,-1.0874,-1.087,-1.0756,-1.0847,-1.0846,-1.0845,-1.0844,-1.0844,-1.1029,-1.1039,-1.1024,-1.1025,-1.1016,-1.1009,-1.1017,-1.0998,-1.1,-1.0995,-1.0975,-1.0981,-1.0968,-1.0957,-1.0949,-1.0954,-1.0936,-1.0945,-1.0948,-1.0951,-1.0956,-1.0874,-1.0952,-1.0952,-1.0952,-1.0952,-1.0951,0,-1.1116,-1.1104,-1.1105,-1.1095,-1.1097,-1.107,-1.106,-1.1063,-1.1068,-1.1058,-1.1057,-1.106,-1.106,-1.1039,-1.1037,-1.1044,-1.1032,-1.1045,-1.1044,-1.1042,-1.0972,-1.0966,-1.1055,-1.1055,-1.1055,-1.1055,-1.1055,-1.1055,-1.1161,-1.1178,-1.1162,-1.1173,-1.1161,-1.1166,-1.1163,-1.1157,-1.1149,-1.1154,-1.1154,-1.1139,-1.1125,-1.1121,-1.1121,-1.1114,-1.1115,-1.1133,-1.1123,-1.1057,-1.1047,-1.1038,-1.1032,-1.1133,-1.1134,-1.1192,-1.1193,-1.1193]},{"header":{"parameterUnit":"m.s-1","parameterCategory":1,"la1":30.2991,"la2":30.254,"lo1":-89.0895,"lo2":-89.0444,"dy":0.0017,"dx":0.0017,"nx":28,"ny":28,"refTime":"2024-02-15T09:00:00:Z","depth":0,"parameterNumber":3,"parameterNumberName":"V-component_of_WINDS"},"data":[0,0,0,0,0,0,0,0,0,0,0,0,0,0,0,0,0,0,0,0,0,0,0,0,0,0,0,0,0,0,0,0,0,0,0,0,0,0,0,0,0,0,0,0,0,0,0,0,0,0,0,0,0,0,0,0,0,0,-0.2871,-0.2871,0,-0.2882,-0.2882,-0.2882,-0.2839,-0.2837,-0.2836,-0.2835,-0.2849,-0.285,-0.2852,0,0,0,0,0,0,0,0,0,0,0,0,0,-0.2814,-0.2815,-0.2871,-0.2871,-0.2871,-0.2882,-0.2882,-0.2882,-0.2839,-0.2837,-0.2836,-0.2834,-0.2848,-0.285,-0.2852,0,0,0,0,0,0,0,0,0,0,0,0,0,-0.2834,-0.2816,-0.2871,-0.2851,-0.2849,-0.2882,-0.2882,-0.2882,-0.2839,-0.2837,-0.2835,-0.2834,-0.2848,-0.285,-0.2852,-0.2906,0,0,-0.286,-0.2861,0,0,0,0,0,0,0,0,-0.2832,-0.2836,-0.2854,-0.2852,-0.285,-0.2857,-0.2867,-0.289,-0.284,-0.2843,-0.2835,-0.2833,-0.2853,-0.2855,-0.2862,-0.2907,-0.2907,-0.286,-0.2861,-0.2862,-0.2863,0,0,0,0,0,0,0,-0.2831,-0.2835,-0.2875,-0.2854,-0.2852,-0.2842,-0.2843,-0.2871,-0.2859,-0.2843,-0.284,-0.2841,-0.2852,-0.2859,-0.2862,-0.2907,-0.286,-0.2862,-0.2863,-0.2864,-0.2997,-0.2999,0,0,0,0,0,0,-0.2832,-0.2834,-0.2875,-0.2876,-0.2836,-0.2845,-0.2845,-0.2857,-0.2859,-0.2857,-0.2843,-0.2839,-0.2856,-0.2859,-0.2862,-0.2925,-0.2862,-0.2865,-0.2866,-0.2995,-0.2998,-0.3,0,0,0,0,0,0,-0.2831,-0.2836,-0.2874,-0.2854,-0.2858,-0.2848,-0.2861,-0.2858,-0.2865,-0.2859,-0.2857,-0.2853,-0.2855,-0.2859,-0.2895,-0.2925,-0.2866,-0.2868,-0.2993,-0.2996,-0.2999,-0.3051,0,0,0,0,0,0,-0.283,-0.2836,-0.2856,-0.2855,-0.2859,-0.2907,-0.2863,-0.286,-0.2869,-0.2864,-0.2867,-0.2866,-0.2854,-0.2892,-0.2898,-0.2927,-0.287,-0.299,-0.2994,-0.2998,-0.3047,-0.3056,-0.3063,0,0,0,0,0,-0.2828,-0.2871,-0.2857,-0.2862,-0.2884,-0.2909,-0.2911,-0.2896,-0.2872,-0.2892,-0.2888,-0.2866,-0.292,-0.2896,-0.2902,-0.2933,-0.2988,-0.2993,-0.2997,-0.3043,-0.3054,-0.3063,0,0,0,0,0,0,-0.2876,-0.287,-0.2855,-0.2898,-0.2904,-0.2901,-0.2926,-0.2908,-0.2921,-0.2917,-0.2897,-0.2898,-0.2939,-0.2939,-0.2912,-0.2984,-0.295,-0.2956,-0.2983,-0.2993,-0.3001,-0.3001,-0.2872,0,0,0,0,0,-0.2892,-0.2912,-0.2906,-0.2945,-0.2949,-0.2937,-0.2947,-0.2935,-0.294,-0.2943,-0.2941,-0.2949,-0.2967,-0.298,-0.2997,-0.3046,-0.3047,-0.307,-0.3079,-0.3086,-0.3091,-0.3118,-0.3129,-0.3015,-0.3015,-0.3015,0,0,-0.2925,-0.2924,-0.2938,-0.2955,-0.2958,-0.298,-0.2939,-0.2965,-0.2981,-0.2947,-0.2981,-0.2981,-0.2987,-0.3031,-0.305,-0.3032,-0.3123,-0.3092,-0.3097,-0.3099,-0.3124,-0.3135,-0.3144,-0.3019,-0.3018,-0.3018,0,0,-0.2996,-0.2997,-0.3029,-0.3033,-0.3038,-0.303,-0.3038,-0.3038,-0.3036,-0.307,-0.3045,-0.3064,-0.3097,-0.3103,-0.311,-0.3183,-0.3164,-0.3189,-0.3233,-0.3259,-0.3268,-0.3276,-0.3302,-0.3312,-0.3195,-0.3195,-0.3195,0,-0.3036,-0.3067,-0.3049,-0.3076,-0.3084,-0.3053,-0.3087,-0.3092,-0.3102,-0.3109,-0.3089,-0.3129,-0.3132,-0.3176,-0.3194,-0.3201,-0.321,-0.3189,-0.3268,-0.3276,-0.3283,-0.3308,-0.3318,-0.3198,-0.3198,-0.3197,-0.3197,0,-0.3117,-0.3139,-0.3165,-0.3175,-0.3187,-0.3217,-0.3203,-0.3217,-0.3204,-0.3198,-0.3233,-0.3235,-0.3252,-0.3261,-0.3248,-0.3304,-0.3293,-0.3271,-0.3236,-0.3297,-0.332,-0.333,-0.3202,-0.3201,-0.32,-0.32,0,0,-0.3219,-0.3218,-0.3228,-0.3233,-0.3236,-0.3253,-0.3282,-0.3297,-0.331,-0.3318,-0.3342,-0.3371,-0.335,-0.3358,-0.3346,-0.3369,-0.3427,-0.3344,-0.3344,-0.336,-0.3489,-0.3507,-0.3518,-0.3414,-0.3416,-0.3417,-0.3489,0,-0.3289,-0.3338,-0.3322,-0.3371,-0.3392,-0.3363,-0.3388,-0.3394,-0.3389,-0.3407,-0.3402,-0.3422,-0.3393,-0.3398,-0.3419,-0.3416,-0.3453,-0.341,-0.3438,-0.3439,-0.3437,-0.353,-0.3548,-0.3616,-0.3498,-0.35,-0.3501,0,-0.3378,-0.3389,-0.344,-0.344,-0.3448,-0.3471,-0.3484,-0.35,-0.3506,-0.3501,-0.351,-0.3493,-0.3522,-0.3487,-0.3527,-0.3498,-0.3508,-0.3508,-0.351,-0.3513,-0.3474,-0.3536,-0.3637,-0.3647,-0.3515,-0.3514,-0.3513,0,-0.3448,-0.3475,-0.351,-0.3514,-0.3514,-0.3531,-0.3532,-0.3536,-0.3546,-0.3558,-0.3565,-0.358,-0.3588,-0.3601,-0.3589,-0.3564,-0.3631,-0.3595,-0.3629,-0.3629,-0.3645,-0.3644,-0.375,-0.3651,-0.365,-0.365,-0.365,0,-0.3528,-0.3561,-0.3541,-0.3563,-0.3599,-0.358,-0.3616,-0.3614,-0.3618,-0.3639,-0.3615,-0.3635,-0.3617,-0.3636,-0.3627,-0.3662,-0.3666,-0.3664,-0.3661,-0.3666,-0.3667,-0.3673,-0.3668,-0.3653,-0.3652,-0.3652,-0.3651,0,-0.3613,-0.3601,-0.3636,-0.3633,-0.3633,-0.366,-0.3658,-0.3678,-0.3671,-0.3698,-0.3704,-0.3694,-0.3715,-0.3704,-0.3726,-0.372,-0.3765,-0.3756,-0.3764,-0.3761,-0.3796,-0.3794,-0.391,-0.3925,-0.3816,-0.3817,-0.3818,0,-0.3665,-0.3689,-0.3689,-0.37,-0.3703,-0.3722,-0.3733,-0.3716,-0.3727,-0.3735,-0.3755,-0.3774,-0.3788,-0.3823,-0.3819,-0.3835,-0.3827,-0.3866,-0.3829,-0.3834,-0.3828,-0.3827,-0.383,-0.3874,-0.3876,-0.3877,-0.3878,0,-0.3759,-0.3752,-0.3767,-0.3781,-0.3793,-0.3803,-0.3812,-0.3823,-0.3806,-0.3821,-0.3841,-0.3852,-0.3875,-0.3894,-0.3909,-0.391,-0.3892,-0.3889,-0.3898,-0.3904,-0.3908,-0.3907,-0.3785,-0.3887,-0.3886,-0.3885,-0.3885,-0.3884,-0.3829,-0.385,-0.3853,-0.3871,-0.3875,-0.3883,-0.3901,-0.3897,-0.3914,-0.393,-0.3919,-0.3944,-0.3949,-0.3966,-0.3971,-0.3991,-0.3975,-0.3988,-0.3991,-0.3995,-0.4,-0.3904,-0.3993,-0.3993,-0.3993,-0.3992,-0.3992,0,-0.3923,-0.3923,-0.394,-0.3952,-0.3966,-0.3946,-0.3954,-0.3967,-0.3989,-0.3995,-0.4009,-0.4034,-0.4052,-0.4049,-0.4066,-0.4083,-0.4075,-0.4088,-0.4087,-0.4088,-0.4012,-0.4003,-0.4094,-0.4094,-0.4094,-0.4094,-0.4094,-0.4094,-0.3973,-0.4007,-0.4,-0.4036,-0.4036,-0.406,-0.4066,-0.4074,-0.4078,-0.4106,-0.4121,-0.4118,-0.4121,-0.4138,-0.4155,-0.4153,-0.4161,-0.4178,-0.4174,-0.4103,-0.4093,-0.4084,-0.4075,-0.418,-0.418,-0.4248,-0.4248,-0.4249]}]]